Flag for Myanmar Weather past 2 weeks in Yangon, Myanmar

Now
75 °F

Passing clouds.


Feels Like: 74 °F
Forecast: 75 / 98 °F
Wind: 5 mph from Southwest

Location: Rangoon Airport

Current Time: Mar 31, 2015 at 6:31:00 AM

Latest Report: Mar 31, 2015 at 6:00 AM


Visibility: 4 mi

Pressure: 29.86 "Hg

Humidity: 94%

Dew point: 73 °F

Location of YangonLocation

Historic Weather in Yangon — Graph

°F

Yangon temperature yesterday

Maximum temperature yesterday: 99 °F (at 2:00 PM)
Minimum temperature yesterday: 75 °F (at 4:30 AM)
Average temperature yesterday: 87 °F

Past Weeks' High & Low Weather Summary

 TemperatureHumidityPressure
High102 °F (Mar 20, 3:30 PM)100% (Mar 16, 5:30 AM)30.04 "Hg (Mar 16, 5:30 AM)
Low72 °F (Mar 21, 5:30 AM)27% (Mar 20, 5:00 PM)29.74 "Hg (Mar 17, 4:00 PM)
Average86 °F64%29.87 "Hg
* Reported Mar 16 5:30 AM — Mar 31 5:30 AM, Yangon, Weather by CustomWeather, © 2015

Note: Actual official high and low records may vary slightly from our data, if they occured in-between our weather recording intervals... More about our weather records

Advertising

Yangon weather history for previous 24 hours

 ConditionsComfort  
Time TempWeatherWind HumidityBarometerVisibility
5:30 AM
Tue, Mar 31
75 °FClear.3 mph94%29.86 "Hg4 mi
5:00 AM75 °FClear.5 mph94%29.86 "Hg4 mi
11:30 PM
Mon, Mar 30
82 °FClear.6 mph70%29.86 "Hg5 mi
11:00 PM82 °FClear.6 mph70%29.86 "Hg5 mi
10:30 PM82 °FClear.6 mph70%29.86 "Hg5 mi
10:00 PM84 °FClear.9 mph66%29.86 "Hg5 mi
9:30 PM86 °FClear.5 mph66%29.83 "Hg5 mi
9:00 PM86 °FClear.7 mph66%29.83 "Hg5 mi
8:30 PM88 °FClear.7 mph62%29.83 "Hg5 mi
8:00 PM88 °FClear.6 mph62%29.83 "Hg5 mi
7:30 PM91 °FClear.12 mph49%29.80 "Hg5 mi
7:00 PM91 °FClear.7 mph49%29.80 "Hg5 mi
6:30 PM93 °FClear.8 mph47%29.77 "Hg5 mi
6:00 PM95 °FClear.6 mph41%29.77 "Hg5 mi
5:30 PM97 °FClear.5 mph32%29.77 "Hg5 mi
5:00 PM99 °FPassing clouds.6 mph31%29.77 "Hg5 mi
4:30 PM99 °FPassing clouds.2 mph31%29.77 "Hg5 mi
4:00 PM99 °FPassing clouds.7 mph31%29.77 "Hg5 mi
3:30 PM99 °FPassing clouds.3 mph31%29.77 "Hg5 mi
3:00 PM99 °FPassing clouds.8 mph31%29.77 "Hg6 mi
2:30 PM99 °FPassing clouds.3 mph31%29.80 "Hg6 mi
2:00 PM99 °FPassing clouds.8 mph31%29.80 "Hg6 mi
1:30 PM95 °FPassing clouds.3 mph39%29.83 "Hg6 mi
1:00 PM95 °FPassing clouds.1 mph39%29.86 "Hg6 mi
12:30 PM95 °FPassing clouds.5 mph39%29.86 "Hg6 mi
12:00 PM95 °FPassing clouds.6 mph39%29.89 "Hg6 mi
11:30 AM93 °FClear.5 mph39%29.89 "Hg6 mi
11:00 AM93 °FClear.2 mph39%29.92 "Hg6 mi
10:30 AM90 °FClear.5 mph55%29.92 "Hg6 mi
10:00 AM88 °FClear.1 mph59%29.92 "Hg6 mi
9:30 AM84 °FClear.2 mph66%29.92 "Hg6 mi
9:00 AM82 °FClear.1 mph70%29.92 "Hg5 mi
8:30 AM82 °FClear.1 mph62%29.92 "Hg4 mi
8:00 AM82 °FClear.1 mph62%29.92 "Hg4 mi
7:30 AM79 °FClear.No wind79%29.89 "Hg4 mi
7:00 AM79 °FClear.No wind79%29.89 "Hg4 mi
6:30 AM75 °FClear.No wind83%29.86 "Hg4 mi
6:00 AM75 °FClear.1 mph83%29.86 "Hg4 mi
Weather by CustomWeather, © 2015

See weather overviewHow to use our weather pages